QPF
0.04 0.05 0.05 0.03 0.02 0.02 0.02 0.03 0.03 0.03 0.05 0.06 0.07 0.05 0.06 0.08 0.07 0.04 0.03 0.02 0.01 0.01 0.02 0.04 0.03 0.02 0.01 0.00 0.01 0.01 0.02 0.04 0.06 0.05 0.04 0.03 0.03 0.03
0.05 0.05 0.05 0.05 0.05 0.03 0.02 0.03 0.03 0.03 0.04 0.04 0.06 0.04 0.03 0.04 0.06 0.05 0.05 0.04 0.02 0.01 0.00 0.02 0.03 0.02 0.01 0.00 0.00 0.01 0.01 0.02 0.03 0.05 0.04 0.02 0.03 0.04
0.06 0.06 0.06 0.08 0.07 0.04 0.02 0.02 0.03 0.03 0.04 0.03 0.05 0.05 0.04 0.04 0.04 0.05 0.05 0.04 0.03 0.01 0.00 0.01 0.04 0.05 0.02 0.01 0.00 0.00 0.01 0.02 0.03 0.04 0.05 0.03 0.02 0.02
0.06 0.08 0.06 0.06 0.06 0.05 0.04 0.03 0.03 0.04 0.04 0.03 0.03 0.04 0.05 0.04 0.03 0.04 0.03 0.03 0.03 0.02 0.01 0.00 0.02 0.07 0.07 0.02 0.01 0.00 0.00 0.01 0.03 0.04 0.06 0.06 0.04 0.03
0.05 0.06 0.07 0.09 0.06 0.06 0.05 0.04 0.03 0.03 0.04 0.03 0.03 0.04 0.04 0.03 0.04 0.04 0.03 0.03 0.02 0.02 0.02 0.01 0.01 0.04 0.09 0.08 0.02 0.01 0.01 0.01 0.02 0.04 0.05 0.06 0.07 0.05
0.03 0.04 0.06 0.08 0.09 0.08 0.06 0.05 0.05 0.05 0.04 0.04 0.02 0.03 0.02 0.02 0.03 0.03 0.03 0.03 0.03 0.02 0.03 0.02 0.01 0.01 0.04 0.08 0.06 0.03 0.02 0.01 0.01 0.02 0.03 0.04 0.06 0.08
0.05 0.06 0.06 0.06 0.07 0.07 0.05 0.05 0.06 0.06 0.05 0.03 0.03 0.03 0.03 0.03 0.02 0.03 0.03 0.03 0.03 0.03 0.03 0.03 0.02 0.01 0.01 0.02 0.04 0.05 0.04 0.02 0.01 0.01 0.01 0.02 0.04 0.06
0.04 0.05 0.05 0.05 0.04 0.03 0.04 0.06 0.07 0.06 0.06 0.06 0.05 0.05 0.05 0.04 0.04 0.03 0.03 0.04 0.04 0.03 0.04 0.05 0.04 0.02 0.01 0.01 0.02 0.03 0.04 0.04 0.03 0.01 0.00 0.00 0.01 0.02
0.02 0.03 0.03 0.04 0.04 0.03 0.03 0.03 0.03 0.03 0.04 0.06 0.05 0.05 0.06 0.07 0.08 0.06 0.05 0.05 0.04 0.03 0.05 0.06 0.06 0.04 0.02 0.02 0.04 0.04 0.03 0.04 0.05 0.04 0.01 0.00 0.00 0.00
0.03 0.03 0.03 0.05 0.05 0.04 0.04 0.04 0.03 0.04 0.03 0.03 0.02 0.03 0.04 0.07 0.09 0.08 0.07 0.06 0.04 0.03 0.05 0.06 0.07 0.07 0.05 0.03 0.04 0.04 0.03 0.03 0.05 0.05 0.04 0.02 0.01 0.01
0.02 0.02 0.03 0.04 0.04 0.03 0.04 0.04 0.03 0.03 0.04 0.06 0.05 0.05 0.04 0.05 0.07 0.08 0.07 0.07 0.04 0.02 0.03 0.06 0.06 0.07 0.08 0.05 0.03 0.03 0.04 0.04 0.05 0.05 0.04 0.04 0.03 0.02
0.02 0.02 0.03 0.03 0.03 0.04 0.04 0.05 0.04 0.03 0.05 0.08 0.08 0.06 0.04 0.04 0.05 0.05 0.04 0.05 0.04 0.03 0.04 0.05 0.06 0.09 0.09 0.08 0.07 0.06 0.06 0.05 0.05 0.04 0.03 0.04 0.06 0.06
0.02 0.03 0.03 0.03 0.03 0.03 0.04 0.03 0.03 0.03 0.06 0.07 0.07 0.07 0.06 0.05 0.04 0.03 0.03 0.05 0.04 0.05 0.05 0.07 0.08 0.10 0.10 0.09 0.10 0.09 0.07 0.05 0.04 0.04 0.04 0.04 0.05 0.08
0.03 0.03 0.03 0.02 0.02 0.02 0.02 0.01 0.02 0.03 0.03 0.04 0.05 0.06 0.07 0.06 0.06 0.06 0.07 0.08 0.07 0.06 0.08 0.10 0.10 0.10 0.09 0.08 0.08 0.08 0.07 0.04 0.03 0.04 0.03 0.03 0.03 0.04
0.02 0.04 0.03 0.03 0.03 0.02 0.01 0.01 0.01 0.02 0.03 0.03 0.04 0.05 0.06 0.08 0.10 0.10 0.11 0.10 0.08 0.06 0.07 0.09 0.10 0.10 0.09 0.07 0.05 0.05 0.04 0.03 0.03 0.04 0.03 0.03 0.03 0.02
0.03 0.03 0.03 0.03 0.03 0.02 0.02 0.01 0.02 0.03 0.02 0.03 0.03 0.05 0.06 0.06 0.08 0.11 0.12 0.12 0.09 0.07 0.06 0.07 0.08 0.10 0.09 0.08 0.06 0.04 0.04 0.03 0.02 0.01 0.02 0.02 0.03 0.02
0.02 0.02 0.03 0.03 0.03 0.03 0.02 0.02 0.03 0.02 0.02 0.02 0.02 0.04 0.05 0.05 0.06 0.07 0.10 0.12 0.11 0.08 0.07 0.07 0.07 0.07 0.07 0.07 0.05 0.03 0.03 0.03 0.02 0.01 0.02 0.02 0.02 0.02
0.02 0.02 0.02 0.03 0.03 0.02 0.02 0.03 0.03 0.02 0.02 0.02 0.03 0.03 0.04 0.05 0.07 0.07 0.08 0.08 0.09 0.08 0.07 0.06 0.07 0.07 0.06 0.04 0.03 0.03 0.03 0.03 0.03 0.03 0.03 0.03 0.03 0.02
0.02 0.01 0.01 0.02 0.02 0.02 0.03 0.04 0.03 0.03 0.03 0.04 0.05 0.05 0.05 0.05 0.06 0.07 0.09 0.09 0.08 0.08 0.07 0.06 0.07 0.07 0.05 0.04 0.03 0.02 0.02 0.03 0.03 0.03 0.04 0.04 0.03 0.02
0.01 0.02 0.02 0.02 0.02 0.02 0.03 0.04 0.04 0.04 0.04 0.04 0.04 0.04 0.04 0.05 0.05 0.05 0.06 0.07 0.08 0.08 0.08 0.07 0.06 0.06 0.05 0.05 0.05 0.04 0.03 0.03 0.03 0.03 0.03 0.04 0.04 0.04
0.02 0.02 0.02 0.03 0.02 0.02 0.02 0.03 0.03 0.03 0.03 0.04 0.03 0.03 0.04 0.04 0.04 0.04 0.05 0.06 0.07 0.06 0.06 0.05 0.06 0.06 0.07 0.07 0.07 0.06 0.04 0.03 0.03 0.04 0.04 0.04 0.04 0.05
0.03 0.03 0.03 0.02 0.02 0.02 0.02 0.02 0.02 0.02 0.02 0.03 0.02 0.02 0.03 0.03 0.04 0.05 0.04 0.06 0.06 0.06 0.07 0.07 0.06 0.06 0.07 0.07 0.07 0.06 0.05 0.04 0.04 0.03 0.04 0.04 0.04 0.04
0.03 0.03 0.02 0.02 0.02 0.02 0.02 0.02 0.02 0.02 0.02 0.02 0.02 0.02 0.02 0.03 0.03 0.04 0.05 0.05 0.06 0.06 0.07 0.08 0.08 0.07 0.07 0.06 0.06 0.06 0.05 0.05 0.04 0.03 0.02 0.02 0.03 0.04
MSLP
1015.21 1015.25 1015.29 1015.32 1015.33 1015.29 1015.20 1015.08 1014.95 1014.81 1014.71 1014.64 1014.62 1014.65 1014.71 1014.80 1014.90 1015.00 1015.12 1015.23 1015.37 1015.52 1015.69 1015.88 1016.07 1016.23 1016.36 1016.43 1016.45 1016.41 1016.33 1016.24 1016.17 1016.12 1016.13 1016.19 1016.30 1016.43
1015.17 1015.20 1015.24 1015.27 1015.28 1015.26 1015.20 1015.12 1015.02 1014.91 1014.82 1014.76 1014.72 1014.70 1014.71 1014.74 1014.78 1014.83 1014.89 1014.98 1015.11 1015.27 1015.47 1015.69 1015.93 1016.15 1016.34 1016.48 1016.56 1016.59 1016.58 1016.55 1016.51 1016.51 1016.53 1016.59 1016.67 1016.76
1015.09 1015.12 1015.16 1015.19 1015.22 1015.23 1015.21 1015.16 1015.10 1015.03 1014.96 1014.90 1014.84 1014.79 1014.74 1014.69 1014.65 1014.63 1014.63 1014.66 1014.75 1014.89 1015.09 1015.32 1015.58 1015.84 1016.07 1016.27 1016.42 1016.52 1016.58 1016.61 1016.65 1016.69 1016.75 1016.84 1016.93 1017.01
1014.98 1015.01 1015.05 1015.10 1015.15 1015.18 1015.20 1015.20 1015.18 1015.15 1015.10 1015.03 1014.96 1014.87 1014.77 1014.66 1014.55 1014.45 1014.38 1014.35 1014.38 1014.47 1014.63 1014.84 1015.08 1015.34 1015.59 1015.82 1016.01 1016.17 1016.29 1016.40 1016.51 1016.62 1016.75 1016.88 1017.01 1017.12
1014.84 1014.87 1014.91 1014.97 1015.03 1015.10 1015.15 1015.18 1015.20 1015.19 1015.17 1015.12 1015.04 1014.94 1014.81 1014.65 1014.49 1014.33 1014.20 1014.10 1014.06 1014.09 1014.18 1014.33 1014.53 1014.74 1014.97 1015.19 1015.39 1015.57 1015.75 1015.92 1016.10 1016.29 1016.50 1016.70 1016.89 1017.06
1014.68 1014.69 1014.73 1014.79 1014.86 1014.94 1015.01 1015.07 1015.11 1015.14 1015.14 1015.10 1015.04 1014.94 1014.81 1014.65 1014.47 1014.29 1014.11 1013.97 1013.87 1013.83 1013.84 1013.90 1014.01 1014.15 1014.30 1014.47 1014.65 1014.83 1015.02 1015.24 1015.48 1015.75 1016.03 1016.32 1016.60 1016.84
1014.47 1014.47 1014.50 1014.55 1014.62 1014.69 1014.77 1014.84 1014.89 1014.94 1014.96 1014.96 1014.93 1014.86 1014.76 1014.63 1014.48 1014.30 1014.13 1013.96 1013.82 1013.71 1013.64 1013.60 1013.60 1013.63 1013.69 1013.77 1013.88 1014.03 1014.22 1014.46 1014.74 1015.07 1015.43 1015.80 1016.16 1016.48
1014.19 1014.18 1014.20 1014.23 1014.29 1014.35 1014.42 1014.48 1014.54 1014.59 1014.64 1014.67 1014.68 1014.67 1014.63 1014.56 1014.45 1014.33 1014.18 1014.03 1013.86 1013.71 1013.57 1013.44 1013.33 1013.24 1013.18 1013.17 1013.19 1013.28 1013.44 1013.67 1013.98 1014.35 1014.76 1015.20 1015.63 1016.03
1013.85 1013.83 1013.84 1013.86 1013.90 1013.93 1013.98 1014.03 1014.08 1014.13 1014.18 1014.24 1014.30 1014.34 1014.37 1014.38 1014.35 1014.29 1014.20 1014.08 1013.92 1013.75 1013.55 1013.35 1013.15 1012.96 1012.79 1012.67 1012.62 1012.64 1012.75 1012.97 1013.27 1013.66 1014.10 1014.58 1015.06 1015.51
1013.45 1013.43 1013.43 1013.45 1013.46 1013.48 1013.50 1013.52 1013.55 1013.59 1013.64 1013.71 1013.80 1013.89 1013.98 1014.05 1014.10 1014.12 1014.09 1014.01 1013.89 1013.71 1013.49 1013.25 1012.98 1012.72 1012.48 1012.29 1012.16 1012.13 1012.20 1012.38 1012.67 1013.05 1013.50 1013.98 1014.48 1014.95
1013.01 1013.01 1013.01 1013.02 1013.02 1013.02 1013.01 1013.00 1013.00 1013.02 1013.05 1013.12 1013.21 1013.33 1013.45 1013.57 1013.68 1013.75 1013.77 1013.75 1013.65 1013.50 1013.29 1013.04 1012.75 1012.46 1012.19 1011.96 1011.79 1011.72 1011.76 1011.91 1012.17 1012.53 1012.95 1013.42 1013.90 1014.35
1012.56 1012.58 1012.60 1012.61 1012.61 1012.59 1012.55 1012.52 1012.48 1012.46 1012.47 1012.51 1012.58 1012.69 1012.81 1012.95 1013.07 1013.17 1013.23 1013.24 1013.19 1013.07 1012.90 1012.67 1012.41 1012.13 1011.86 1011.64 1011.47 1011.39 1011.41 1011.54 1011.76 1012.07 1012.45 1012.87 1013.30 1013.72
1012.14 1012.18 1012.21 1012.22 1012.22 1012.19 1012.14 1012.08 1012.02 1011.97 1011.93 1011.93 1011.96 1012.03 1012.12 1012.23 1012.34 1012.44 1012.51 1012.55 1012.52 1012.45 1012.32 1012.14 1011.94 1011.71 1011.50 1011.31 1011.17 1011.10 1011.11 1011.21 1011.40 1011.66 1011.97 1012.32 1012.68 1013.03
1011.76 1011.81 1011.85 1011.87 1011.87 1011.84 1011.79 1011.71 1011.63 1011.54 1011.47 1011.42 1011.40 1011.41 1011.46 1011.52 1011.59 1011.66 1011.72 1011.76 1011.76 1011.73 1011.65 1011.55 1011.41 1011.26 1011.11 1010.98 1010.89 1010.84 1010.85 1010.92 1011.06 1011.25 1011.48 1011.74 1012.01 1012.28
1011.45 1011.49 1011.53 1011.55 1011.55 1011.53 1011.48 1011.40 1011.31 1011.22 1011.12 1011.04 1010.97 1010.93 1010.91 1010.91 1010.93 1010.96 1011.00 1011.03 1011.05 1011.05 1011.03 1010.99 1010.93 1010.85 1010.78 1010.70 1010.64 1010.61 1010.60 1010.64 1010.71 1010.82 1010.96 1011.12 1011.30 1011.49
1011.18 1011.21 1011.23 1011.25 1011.26 1011.25 1011.21 1011.16 1011.09 1011.00 1010.90 1010.81 1010.71 1010.63 1010.57 1010.52 1010.49 1010.48 1010.49 1010.50 1010.52 1010.55 1010.57 1010.58 1010.58 1010.57 1010.54 1010.51 1010.46 1010.42 1010.39 1010.36 1010.36 1010.38 1010.42 1010.49 1010.57 1010.69
1010.96 1010.96 1010.97 1010.98 1010.99 1011.00 1011.00 1010.99 1010.95 1010.90 1010.84 1010.76 1010.67 1010.58 1010.49 1010.41 1010.35 1010.30 1010.28 1010.28 1010.29 1010.32 1010.36 1010.40 1010.43 1010.45 1010.44 1010.41 1010.36 1010.28 1010.19 1010.10 1010.01 1009.93 1009.88 1009.86 1009.87 1009.92
1010.77 1010.74 1010.73 1010.74 1010.77 1010.81 1010.85 1010.89 1010.92 1010.94 1010.93 1010.90 1010.84 1010.77 1010.69 1010.60 1010.52 1010.45 1010.40 1010.37 1010.37 1010.39 1010.42 1010.46 1010.48 1010.49 1010.46 1010.40 1010.30 1010.17 1010.01 1009.83 1009.66 1009.50 1009.36 1009.27 1009.23 1009.24
1010.58 1010.53 1010.51 1010.52 1010.58 1010.66 1010.76 1010.87 1010.98 1011.08 1011.14 1011.18 1011.18 1011.15 1011.09 1011.01 1010.92 1010.84 1010.76 1010.70 1010.67 1010.65 1010.65 1010.64 1010.63 1010.59 1010.52 1010.40 1010.23 1010.03 1009.80 1009.54 1009.30 1009.07 1008.89 1008.76 1008.70 1008.71
1010.38 1010.32 1010.30 1010.34 1010.42 1010.55 1010.72 1010.91 1011.10 1011.28 1011.44 1011.55 1011.62 1011.63 1011.60 1011.53 1011.44 1011.33 1011.22 1011.12 1011.03 1010.96 1010.89 1010.83 1010.75 1010.65 1010.50 1010.32 1010.09 1009.82 1009.52 1009.21 1008.92 1008.67 1008.47 1008.34 1008.30 1008.34
1010.15 1010.10 1010.10 1010.16 1010.29 1010.47 1010.71 1010.97 1011.24 1011.50 1011.73 1011.92 1012.04 1012.09 1012.08 1012.02 1011.91 1011.77 1011.61 1011.45 1011.30 1011.15 1011.01 1010.87 1010.72 1010.55 1010.34 1010.09 1009.80 1009.49 1009.16 1008.83 1008.53 1008.28 1008.10 1008.01 1008.01 1008.11
1009.88 1009.85 1009.88 1009.98 1010.15 1010.39 1010.68 1011.00 1011.34 1011.67 1011.96 1012.19 1012.34 1012.42 1012.41 1012.33 1012.19 1012.01 1011.79 1011.57 1011.34 1011.12 1010.90 1010.68 1010.46 1010.23 1009.97 1009.68 1009.37 1009.04 1008.71 1008.40 1008.13 1007.92 1007.79 1007.76 1007.83 1007.99
1009.57 1009.56 1009.63 1009.76 1009.97 1010.25 1010.59 1010.96 1011.35 1011.71 1012.04 1012.29 1012.46 1012.54 1012.52 1012.41 1012.22 1011.98 1011.70 1011.41 1011.10 1010.81 1010.52 1010.25 1009.98 1009.71 1009.43 1009.13 1008.83 1008.53 1008.23 1007.97 1007.75 1007.60 1007.53 1007.57 1007.70 1007.93
Thickness
5738 5737 5735 5735 5736 5735 5733 5729 5721 5714 5714 5720 5723 5727 5726 5725 5723 5721 5719 5717 5716 5715 5714 5713 5713 5713 5712 5713 5712 5712 5712 5711 5711 5711 5709 5708 5707 5706
5734 5732 5730 5730 5730 5730 5729 5727 5724 5718 5712 5716 5718 5721 5721 5720 5718 5717 5715 5713 5712 5711 5710 5709 5708 5708 5708 5708 5708 5708 5708 5708 5707 5706 5706 5705 5704 5702
5729 5728 5725 5725 5724 5723 5723 5721 5719 5716 5709 5710 5713 5714 5714 5713 5712 5711 5710 5709 5707 5706 5706 5705 5705 5704 5704 5704 5704 5704 5704 5703 5703 5702 5701 5700 5699 5698
5724 5723 5721 5720 5718 5717 5716 5714 5713 5712 5708 5703 5704 5705 5706 5706 5706 5705 5705 5705 5704 5703 5702 5702 5701 5701 5701 5701 5701 5700 5700 5699 5698 5698 5697 5696 5695 5694
5720 5718 5716 5714 5712 5711 5710 5708 5707 5706 5705 5701 5699 5699 5699 5700 5699 5699 5699 5699 5700 5699 5699 5698 5698 5698 5698 5698 5697 5697 5696 5695 5694 5693 5692 5692 5691 5690
5716 5714 5712 5710 5707 5706 5704 5703 5701 5699 5698 5696 5694 5693 5693 5694 5693 5692 5691 5692 5693 5695 5695 5696 5695 5694 5694 5694 5694 5693 5692 5691 5690 5689 5688 5688 5687 5686
5711 5710 5708 5707 5704 5702 5701 5698 5696 5693 5691 5690 5688 5687 5687 5686 5686 5687 5686 5687 5688 5690 5690 5692 5691 5691 5690 5690 5689 5689 5688 5687 5686 5685 5684 5684 5683 5682
5704 5704 5703 5702 5700 5697 5696 5694 5692 5689 5686 5684 5683 5682 5682 5682 5682 5683 5681 5680 5679 5685 5686 5686 5688 5687 5688 5687 5686 5685 5684 5683 5682 5681 5680 5679 5679 5678
5699 5698 5697 5697 5695 5692 5691 5689 5688 5686 5684 5681 5679 5678 5678 5678 5677 5677 5676 5676 5677 5681 5681 5680 5683 5683 5685 5686 5684 5683 5681 5680 5679 5678 5676 5675 5675 5674
5695 5693 5691 5690 5689 5687 5685 5684 5683 5682 5681 5679 5677 5677 5677 5677 5675 5675 5674 5674 5676 5677 5678 5675 5677 5678 5681 5680 5680 5679 5678 5677 5675 5674 5673 5672 5671 5670
5690 5689 5687 5684 5683 5681 5679 5677 5676 5676 5677 5676 5675 5674 5674 5673 5672 5670 5668 5667 5667 5670 5674 5672 5672 5672 5674 5674 5675 5674 5674 5672 5671 5670 5668 5667 5667 5666
5684 5682 5681 5679 5677 5674 5673 5672 5670 5670 5670 5670 5670 5670 5670 5670 5668 5667 5666 5663 5663 5664 5668 5667 5667 5666 5664 5668 5669 5669 5668 5667 5667 5665 5664 5663 5662 5660
5676 5676 5675 5672 5671 5669 5667 5666 5665 5664 5664 5664 5665 5665 5666 5667 5667 5666 5665 5663 5661 5661 5665 5664 5662 5661 5659 5659 5662 5663 5663 5663 5661 5660 5659 5658 5657 5656
5670 5669 5668 5665 5664 5663 5662 5662 5660 5659 5659 5659 5660 5661 5661 5662 5663 5664 5664 5663 5662 5661 5662 5661 5658 5657 5655 5654 5654 5657 5658 5659 5658 5657 5655 5654 5652 5651
5664 5663 5661 5659 5658 5658 5657 5657 5655 5654 5653 5653 5654 5656 5658 5659 5660 5659 5659 5659 5659 5659 5659 5658 5656 5656 5654 5651 5651 5651 5651 5653 5654 5653 5651 5650 5648 5647
5656 5655 5654 5654 5653 5653 5653 5652 5651 5650 5649 5649 5650 5652 5653 5653 5654 5654 5652 5652 5651 5651 5654 5654 5653 5652 5649 5649 5648 5647 5648 5648 5649 5649 5648 5646 5645 5643
5647 5647 5649 5648 5647 5648 5648 5648 5647 5646 5644 5644 5644 5645 5646 5646 5647 5649 5647 5646 5644 5644 5645 5647 5648 5648 5647 5645 5643 5644 5644 5644 5645 5645 5642 5640 5640 5639
5641 5642 5643 5642 5642 5642 5641 5641 5641 5641 5641 5640 5639 5639 5640 5640 5641 5642 5641 5640 5639 5640 5640 5641 5641 5639 5639 5641 5642 5641 5640 5640 5641 5640 5639 5636 5634 5635
5637 5638 5637 5637 5636 5637 5637 5637 5636 5636 5636 5635 5634 5634 5635 5635 5635 5636 5636 5635 5635 5635 5637 5638 5636 5633 5629 5630 5636 5639 5636 5635 5635 5635 5634 5633 5631 5631
5635 5634 5633 5633 5633 5632 5633 5632 5633 5632 5631 5630 5630 5630 5630 5630 5630 5631 5631 5630 5630 5631 5632 5633 5632 5630 5628 5628 5630 5632 5634 5632 5631 5629 5629 5629 5628 5627
5631 5631 5630 5630 5629 5628 5628 5628 5628 5627 5627 5626 5625 5625 5625 5625 5626 5626 5626 5626 5625 5626 5625 5626 5628 5629 5628 5627 5625 5626 5628 5629 5629 5626 5625 5623 5621 5621
5627 5626 5625 5625 5625 5624 5624 5623 5623 5622 5622 5621 5621 5621 5621 5621 5621 5621 5621 5620 5620 5620 5621 5621 5622 5622 5621 5620 5620 5621 5621 5622 5623 5623 5622 5621 5618 5617
5624 5623 5621 5620 5620 5620 5619 5618 5618 5617 5617 5616 5616 5616 5616 5616 5616 5616 5616 5616 5615 5615 5614 5615 5615 5616 5616 5616 5616 5616 5616 5616 5616 5615 5615 5616 5617 5617